Time,TemperatureF,DewpointF,PressureIn,WindDirection,WindDirectionDegrees,WindSpeedMPH,WindSpeedGustMPH,Humidity,HourlyPrecipIn,Conditions,Clouds,dailyrainin,SoftwareType,DateUTC
2013-02-28 00:00:00,26.9,23.6,30.15,NW,309,7.0,7.0,87,0.00,,,0.00,WeatherCatV1.10B1784,2013-02-28 06:00:00,
2013-02-28 00:05:00,26.9,23.6,30.16,West,276,5.0,7.0,87,0.00,,,0.00,WeatherCatV1.10B1784,2013-02-28 06:05:00,
2013-02-28 00:10:00,26.9,23.6,30.15,NW,314,2.0,5.0,87,0.00,,,0.00,WeatherCatV1.10B1784,2013-02-28 06:10:00,
2013-02-28 00:15:00,26.9,23.8,30.15,NW,322,1.0,10.0,88,0.00,,,0.00,WeatherCatV1.10B1784,2013-02-28 06:15:00,
2013-02-28 00:20:00,26.9,23.6,30.15,NNW,334,5.0,8.0,87,0.00,,,0.00,WeatherCatV1.10B1784,2013-02-28 06:20:00,
2013-02-28 00:25:00,26.8,23.5,30.16,NW,307,2.0,11.0,87,0.00,,,0.00,WeatherCatV1.10B1784,2013-02-28 06:25:00,
2013-02-28 00:30:00,26.7,23.1,30.16,NW,316,4.0,6.0,86,0.00,,,0.00,WeatherCatV1.10B1784,2013-02-28 06:30:00,
2013-02-28 00:35:00,26.6,23.3,30.16,NW,305,4.0,6.0,87,0.00,,,0.00,WeatherCatV1.10B1784,2013-02-28 06:35:00,
2013-02-28 00:40:00,26.5,23.2,30.16,NW,324,6.0,9.0,87,0.00,,,0.00,WeatherCatV1.10B1784,2013-02-28 06:40:00,
2013-02-28 00:45:00,26.3,22.7,30.16,WNW,290,4.0,7.0,86,0.00,,,0.00,WeatherCatV1.10B1784,2013-02-28 06:45:00,
2013-02-28 00:50:00,26.2,22.9,30.16,WNW,301,4.0,6.0,87,0.00,,,0.00,WeatherCatV1.10B1784,2013-02-28 06:50:00,
2013-02-28 00:55:00,26.1,22.8,30.16,NW,318,8.0,9.0,87,0.00,,,0.00,WeatherCatV1.10B1784,2013-02-28 06:55:00,
2013-02-28 01:00:00,26.1,22.8,30.16,NNW,328,5.0,8.0,87,0.00,,,0.00,WeatherCatV1.10B1784,2013-02-28 07:00:00,
2013-02-28 01:05:00,26.0,22.7,30.16,WNW,303,4.0,5.0,87,0.00,,,0.00,WeatherCatV1.10B1784,2013-02-28 07:05:00,
2013-02-28 01:10:00,25.9,22.6,30.16,NNW,333,2.0,8.0,87,0.00,,,0.00,WeatherCatV1.10B1784,2013-02-28 07:10:00,
2013-02-28 01:15:00,25.9,22.6,30.16,NW,314,3.0,9.0,87,0.00,,,0.00,WeatherCatV1.10B1784,2013-02-28 07:15:00,
2013-02-28 01:20:00,25.8,22.5,30.16,NW,316,4.0,6.0,87,0.00,,,0.00,WeatherCatV1.10B1784,2013-02-28 07:20:00,
2013-02-28 01:25:00,25.8,22.5,30.17,NNW,332,2.0,7.0,87,0.00,,,0.00,WeatherCatV1.10B1784,2013-02-28 07:25:00,
2013-02-28 01:30:00,25.7,22.4,30.17,NW,307,5.0,9.0,87,0.00,,,0.00,WeatherCatV1.10B1784,2013-02-28 07:30:00,
2013-02-28 01:35:00,25.7,22.4,30.17,North,352,3.0,8.0,87,0.00,,,0.00,WeatherCatV1.10B1784,2013-02-28 07:35:00,
2013-02-28 01:40:00,25.6,22.3,30.17,North,356,3.0,7.0,87,0.00,,,0.00,WeatherCatV1.10B1784,2013-02-28 07:40:00,
2013-02-28 01:45:00,25.6,22.3,30.17,WNW,303,3.0,5.0,87,0.00,,,0.00,WeatherCatV1.10B1784,2013-02-28 07:45:00,
2013-02-28 01:50:00,25.4,22.1,30.17,NW,320,1.0,5.0,87,0.00,,,0.00,WeatherCatV1.10B1784,2013-02-28 07:50:00,
2013-02-28 01:55:00,25.3,22.0,30.17,WNW,303,3.0,8.0,87,0.00,,,0.00,WeatherCatV1.10B1784,2013-02-28 07:55:00,
2013-02-28 02:00:00,25.2,21.9,30.17,WNW,294,3.0,6.0,87,0.00,,,0.00,WeatherCatV1.10B1784,2013-02-28 08:00:00,
2013-02-28 02:05:00,25.1,21.8,30.17,NW,313,2.0,9.0,87,0.00,,,0.00,WeatherCatV1.10B1784,2013-02-28 08:05:00,
2013-02-28 02:10:00,24.9,21.6,30.17,NNW,328,2.0,7.0,87,0.00,,,0.00,WeatherCatV1.10B1784,2013-02-28 08:10:00,
2013-02-28 02:15:00,24.7,21.4,30.17,NW,310,3.0,5.0,87,0.00,,,0.00,WeatherCatV1.10B1784,2013-02-28 08:15:00,
2013-02-28 02:20:00,24.6,21.3,30.17,WNW,297,3.0,3.0,87,0.00,,,0.00,WeatherCatV1.10B1784,2013-02-28 08:20:00,
2013-02-28 02:25:00,24.3,21.0,30.17,NW,322,1.0,6.0,87,0.00,,,0.00,WeatherCatV1.10B1784,2013-02-28 08:25:00,
2013-02-28 02:30:00,24.0,20.7,30.17,WNW,293,0.0,6.0,87,0.00,,,0.00,WeatherCatV1.10B1784,2013-02-28 08:30:00,
2013-02-28 02:35:00,23.7,20.7,30.17,North,351,1.0,5.0,88,0.00,,,0.00,WeatherCatV1.10B1784,2013-02-28 08:35:00,
2013-02-28 02:40:00,23.5,20.5,30.17,NNW,338,3.0,3.0,88,0.00,,,0.00,WeatherCatV1.10B1784,2013-02-28 08:40:00,
2013-02-28 02:45:00,23.2,20.2,30.18,West,259,2.0,4.0,88,0.00,,,0.00,WeatherCatV1.10B1784,2013-02-28 08:45:00,
2013-02-28 02:50:00,23.0,20.0,30.17,NW,320,1.0,4.0,88,0.00,,,0.00,WeatherCatV1.10B1784,2013-02-28 08:50:00,
2013-02-28 02:55:00,22.8,19.8,30.17,WNW,291,3.0,7.0,88,0.00,,,0.00,WeatherCatV1.10B1784,2013-02-28 08:55:00,
2013-02-28 03:00:00,22.6,19.6,30.17,NNW,329,3.0,7.0,88,0.00,,,0.00,WeatherCatV1.10B1784,2013-02-28 09:00:00,
2013-02-28 03:05:00,22.5,19.5,30.17,WSW,257,6.0,6.0,88,0.00,,,0.00,WeatherCatV1.10B1784,2013-02-28 09:05:00,
2013-02-28 03:10:00,22.4,19.4,30.17,NW,309,4.0,6.0,88,0.00,,,0.00,WeatherCatV1.10B1784,2013-02-28 09:10:00,
2013-02-28 03:15:00,22.3,19.3,30.17,WNW,291,5.0,6.0,88,0.00,,,0.00,WeatherCatV1.10B1784,2013-02-28 09:15:00,
2013-02-28 03:20:00,22.2,19.2,30.18,NW,322,1.0,7.0,88,0.00,,,0.00,WeatherCatV1.10B1784,2013-02-28 09:20:00,
2013-02-28 03:25:00,22.2,19.2,30.18,NW,326,1.0,5.0,88,0.00,,,0.00,WeatherCatV1.10B1784,2013-02-28 09:25:00,
2013-02-28 03:30:00,22.2,19.2,30.18,WNW,301,3.0,6.0,88,0.00,,,0.00,WeatherCatV1.10B1784,2013-02-28 09:30:00,
2013-02-28 03:35:00,22.2,19.2,30.18,WNW,283,4.0,6.0,88,0.00,,,0.00,WeatherCatV1.10B1784,2013-02-28 09:35:00,
2013-02-28 03:40:00,22.1,19.1,30.18,NNW,333,3.0,6.0,88,0.00,,,0.00,WeatherCatV1.10B1784,2013-02-28 09:40:00,
2013-02-28 03:45:00,22.0,19.0,30.18,West,273,3.0,8.0,88,0.00,,,0.00,WeatherCatV1.10B1784,2013-02-28 09:45:00,
2013-02-28 03:50:00,21.9,18.9,30.18,NW,316,3.0,5.0,88,0.00,,,0.00,WeatherCatV1.10B1784,2013-02-28 09:50:00,
2013-02-28 03:55:00,21.8,18.8,30.18,WNW,299,2.0,7.0,88,0.00,,,0.00,WeatherCatV1.10B1784,2013-02-28 09:55:00,
2013-02-28 03:58:00,21.7,18.7,30.18,NNW,343,5.0,5.0,88,0.00,,,0.00,WeatherCatV1.10B1784,2013-02-28 09:58:00,
2013-02-28 04:03:00,21.6,18.9,30.18,WNW,296,2.0,6.0,89,0.00,,,0.00,WeatherCatV1.10B1784,2013-02-28 10:03:00,
2013-02-28 04:08:00,21.5,18.8,30.19,NW,309,4.0,5.0,89,0.00,,,0.00,WeatherCatV1.10B1784,2013-02-28 10:08:00,
2013-02-28 04:13:00,21.4,18.7,30.19,NW,305,2.0,4.0,89,0.00,,,0.00,WeatherCatV1.10B1784,2013-02-28 10:13:00,
2013-02-28 04:18:00,21.3,18.6,30.19,WNW,297,0.0,4.0,89,0.00,,,0.00,WeatherCatV1.10B1784,2013-02-28 10:18:00,
2013-02-28 04:23:00,21.3,18.6,30.19,WNW,292,3.0,6.0,89,0.00,,,0.00,WeatherCatV1.10B1784,2013-02-28 10:23:00,
2013-02-28 04:28:00,21.2,18.5,30.19,NW,307,1.0,7.0,89,0.00,,,0.00,WeatherCatV1.10B1784,2013-02-28 10:28:00,
2013-02-28 04:33:00,21.1,18.4,30.19,WNW,301,4.0,5.0,89,0.00,,,0.00,WeatherCatV1.10B1784,2013-02-28 10:33:00,
2013-02-28 04:38:00,21.1,18.4,30.19,NNW,329,2.0,7.0,89,0.00,,,0.00,WeatherCatV1.10B1784,2013-02-28 10:38:00,
2013-02-28 04:43:00,21.1,18.4,30.19,NW,319,2.0,4.0,89,0.00,,,0.00,WeatherCatV1.10B1784,2013-02-28 10:43:00,
2013-02-28 04:48:00,21.1,18.4,30.19,NW,318,1.0,5.0,89,0.00,,,0.00,WeatherCatV1.10B1784,2013-02-28 10:48:00,
2013-02-28 04:53:00,21.0,18.3,30.19,NW,314,4.0,5.0,89,0.00,,,0.00,WeatherCatV1.10B1784,2013-02-28 10:53:00,
2013-02-28 04:58:00,20.9,18.2,30.19,WNW,284,1.0,5.0,89,0.00,,,0.00,WeatherCatV1.10B1784,2013-02-28 10:58:00,
2013-02-28 05:03:00,20.9,18.2,30.19,NW,314,2.0,4.0,89,0.00,,,0.00,WeatherCatV1.10B1784,2013-02-28 11:03:00,
2013-02-28 05:08:00,20.8,18.1,30.20,NW,311,0.0,4.0,89,0.00,,,0.00,WeatherCatV1.10B1784,2013-02-28 11:08:00,
2013-02-28 05:13:00,20.7,18.0,30.19,NW,311,0.0,3.0,89,0.00,,,0.00,WeatherCatV1.10B1784,2013-02-28 11:13:00,
2013-02-28 05:18:00,20.5,17.8,30.20,NW,305,2.0,4.0,89,0.00,,,0.00,WeatherCatV1.10B1784,2013-02-28 11:18:00,
2013-02-28 05:23:00,20.3,17.6,30.20,NW,322,4.0,5.0,89,0.00,,,0.00,WeatherCatV1.10B1784,2013-02-28 11:23:00,
2013-02-28 05:28:00,20.2,17.5,30.20,NW,314,0.0,1.0,89,0.00,,,0.00,WeatherCatV1.10B1784,2013-02-28 11:28:00,
2013-02-28 05:33:00,20.1,17.4,30.20,NW,318,1.0,2.0,89,0.00,,,0.00,WeatherCatV1.10B1784,2013-02-28 11:33:00,
2013-02-28 05:38:00,20.0,17.3,30.20,NW,321,4.0,4.0,89,0.00,,,0.00,WeatherCatV1.10B1784,2013-02-28 11:38:00,
2013-02-28 05:43:00,19.9,17.2,30.20,NW,305,0.0,3.0,89,0.00,,,0.00,WeatherCatV1.10B1784,2013-02-28 11:43:00,
2013-02-28 05:48:00,19.9,17.5,30.20,NW,309,1.0,5.0,90,0.00,,,0.00,WeatherCatV1.10B1784,2013-02-28 11:48:00,
2013-02-28 05:53:00,19.8,17.4,30.21,WNW,299,2.0,4.0,90,0.00,,,0.00,WeatherCatV1.10B1784,2013-02-28 11:53:00,
2013-02-28 05:58:00,19.7,17.3,30.21,WNW,295,0.0,5.0,90,0.00,,,0.00,WeatherCatV1.10B1784,2013-02-28 11:58:00,
2013-02-28 06:03:00,19.7,17.3,30.21,NW,311,2.0,6.0,90,0.00,,,0.00,WeatherCatV1.10B1784,2013-02-28 12:03:00,
2013-02-28 06:08:00,19.7,17.3,30.21,NW,311,1.0,6.0,90,0.00,,,0.00,WeatherCatV1.10B1784,2013-02-28 12:08:00,
2013-02-28 06:13:00,19.7,17.3,30.21,NW,312,2.0,2.0,90,0.00,,,0.00,WeatherCatV1.10B1784,2013-02-28 12:13:00,
2013-02-28 06:18:00,19.7,17.3,30.21,WNW,294,2.0,5.0,90,0.00,,,0.00,WeatherCatV1.10B1784,2013-02-28 12:18:00,
2013-02-28 06:23:00,19.7,17.3,30.21,NW,314,4.0,7.0,90,0.00,,,0.00,WeatherCatV1.10B1784,2013-02-28 12:23:00,
2013-02-28 06:28:00,19.7,17.3,30.21,NW,315,3.0,6.0,90,0.00,,,0.00,WeatherCatV1.10B1784,2013-02-28 12:28:00,
2013-02-28 06:33:00,19.8,17.4,30.22,NNW,347,3.0,5.0,90,0.00,,,0.00,WeatherCatV1.10B1784,2013-02-28 12:33:00,
2013-02-28 06:38:00,19.8,17.4,30.22,WNW,294,5.0,7.0,90,0.00,,,0.00,WeatherCatV1.10B1784,2013-02-28 12:38:00,
2013-02-28 06:43:00,19.9,17.7,30.22,NW,321,5.0,7.0,91,0.00,,,0.00,WeatherCatV1.10B1784,2013-02-28 12:43:00,
2013-02-28 06:48:00,19.9,17.7,30.22,WNW,297,3.0,8.0,91,0.00,,,0.00,WeatherCatV1.10B1784,2013-02-28 12:48:00,
2013-02-28 06:53:00,19.9,17.7,30.22,WNW,303,3.0,6.0,91,0.00,,,0.00,WeatherCatV1.10B1784,2013-02-28 12:53:00,
2013-02-28 06:58:00,20.0,17.8,30.22,WNW,303,0.0,6.0,91,0.00,,,0.00,WeatherCatV1.10B1784,2013-02-28 12:58:00,
2013-02-28 07:03:00,20.0,17.8,30.22,NW,305,1.0,3.0,91,0.00,,,0.00,WeatherCatV1.10B1784,2013-02-28 13:03:00,
2013-02-28 07:08:00,20.1,17.9,30.22,NW,309,2.0,6.0,91,0.00,,,0.00,WeatherCatV1.10B1784,2013-02-28 13:08:00,
2013-02-28 07:13:00,20.2,18.0,30.22,WNW,282,3.0,5.0,91,0.00,,,0.00,WeatherCatV1.10B1784,2013-02-28 13:13:00,
2013-02-28 07:18:00,20.3,18.1,30.22,NW,313,1.0,5.0,91,0.00,,,0.00,WeatherCatV1.10B1784,2013-02-28 13:18:00,
2013-02-28 07:23:00,20.4,18.2,30.23,NW,309,4.0,4.0,91,0.00,,,0.00,WeatherCatV1.10B1784,2013-02-28 13:23:00,
2013-02-28 07:28:00,20.5,18.3,30.23,NW,307,3.0,7.0,91,0.00,,,0.00,WeatherCatV1.10B1784,2013-02-28 13:28:00,
2013-02-28 07:33:00,20.6,18.4,30.23,NW,319,4.0,4.0,91,0.00,,,0.00,WeatherCatV1.10B1784,2013-02-28 13:33:00,
2013-02-28 07:38:00,20.7,18.5,30.23,West,281,2.0,5.0,91,0.00,,,0.00,WeatherCatV1.10B1784,2013-02-28 13:38:00,
2013-02-28 07:43:00,20.8,18.6,30.23,West,263,2.0,5.0,91,0.00,,,0.00,WeatherCatV1.10B1784,2013-02-28 13:43:00,
2013-02-28 07:48:00,20.9,18.7,30.23,NNW,336,2.0,6.0,91,0.00,,,0.00,WeatherCatV1.10B1784,2013-02-28 13:48:00,
2013-02-28 07:53:00,20.9,18.4,30.23,NW,308,0.0,4.0,90,0.00,,,0.00,WeatherCatV1.10B1784,2013-02-28 13:53:00,
2013-02-28 07:58:00,20.9,18.4,30.23,NW,326,2.0,6.0,90,0.00,,,0.00,WeatherCatV1.10B1784,2013-02-28 13:58:00,
2013-02-28 08:03:00,21.0,18.5,30.23,WNW,303,7.0,7.0,90,0.00,,,0.00,WeatherCatV1.10B1784,2013-02-28 14:03:00,
2013-02-28 08:08:00,21.0,18.5,30.23,WNW,294,2.0,6.0,90,0.00,,,0.00,WeatherCatV1.10B1784,2013-02-28 14:08:00,
2013-02-28 08:13:00,21.1,18.6,30.23,West,274,0.0,5.0,90,0.00,,,0.00,WeatherCatV1.10B1784,2013-02-28 14:13:00,
2013-02-28 08:18:00,21.1,18.6,30.23,NW,322,9.0,9.0,90,0.00,,,0.00,WeatherCatV1.10B1784,2013-02-28 14:18:00,
2013-02-28 08:23:00,21.1,18.6,30.23,NNW,347,2.0,5.0,90,0.00,,,0.00,WeatherCatV1.10B1784,2013-02-28 14:23:00,
2013-02-28 08:28:00,21.2,18.7,30.24,North,353,2.0,5.0,90,0.00,,,0.00,WeatherCatV1.10B1784,2013-02-28 14:28:00,
2013-02-28 08:33:00,21.2,18.7,30.24,NNW,338,4.0,4.0,90,0.00,,,0.00,WeatherCatV1.10B1784,2013-02-28 14:33:00,
2013-02-28 08:38:00,21.3,18.8,30.24,NW,320,2.0,5.0,90,0.00,,,0.00,WeatherCatV1.10B1784,2013-02-28 14:38:00,
2013-02-28 08:43:00,21.2,18.5,30.24,NW,321,3.0,7.0,89,0.00,,,0.00,WeatherCatV1.10B1784,2013-02-28 14:43:00,
2013-02-28 08:48:00,21.1,18.4,30.24,NW,322,3.0,9.0,89,0.00,,,0.00,WeatherCatV1.10B1784,2013-02-28 14:48:00,
2013-02-28 08:53:00,21.2,18.5,30.24,WNW,282,4.0,5.0,89,0.00,,,0.00,WeatherCatV1.10B1784,2013-02-28 14:53:00,
2013-02-28 08:58:00,21.3,18.6,30.24,West,280,2.0,6.0,89,0.00,,,0.00,WeatherCatV1.10B1784,2013-02-28 14:58:00,
2013-02-28 09:03:00,21.3,18.6,30.24,NW,312,5.0,6.0,89,0.00,,,0.00,WeatherCatV1.10B1784,2013-02-28 15:03:00,
2013-02-28 09:08:00,21.4,18.7,30.24,WNW,288,2.0,5.0,89,0.00,,,0.00,WeatherCatV1.10B1784,2013-02-28 15:08:00,
2013-02-28 09:13:00,21.5,18.8,30.24,WNW,297,4.0,6.0,89,0.00,,,0.00,WeatherCatV1.10B1784,2013-02-28 15:13:00,
2013-02-28 09:18:00,21.7,19.0,30.24,WNW,285,3.0,8.0,89,0.00,,,0.00,WeatherCatV1.10B1784,2013-02-28 15:18:00,
2013-02-28 09:23:00,21.8,19.1,30.25,NW,313,2.0,4.0,89,0.00,,,0.00,WeatherCatV1.10B1784,2013-02-28 15:23:00,
2013-02-28 09:28:00,21.8,19.1,30.25,NNW,341,4.0,5.0,89,0.00,,,0.00,WeatherCatV1.10B1784,2013-02-28 15:28:00,
2013-02-28 09:33:00,21.9,19.2,30.25,NW,311,2.0,5.0,89,0.00,,,0.00,WeatherCatV1.10B1784,2013-02-28 15:33:00,
2013-02-28 09:38:00,22.1,19.4,30.25,WNW,288,3.0,6.0,89,0.00,,,0.00,WeatherCatV1.10B1784,2013-02-28 15:38:00,
2013-02-28 09:43:00,22.2,19.2,30.25,WNW,297,4.0,6.0,88,0.00,,,0.00,WeatherCatV1.10B1784,2013-02-28 15:43:00,
2013-02-28 09:48:00,22.2,19.2,30.25,NW,309,4.0,5.0,88,0.00,,,0.00,WeatherCatV1.10B1784,2013-02-28 15:48:00,
2013-02-28 09:53:00,22.3,19.3,30.25,NNW,343,4.0,5.0,88,0.00,,,0.00,WeatherCatV1.10B1784,2013-02-28 15:53:00,
2013-02-28 09:58:00,22.4,19.4,30.25,North,0,4.0,7.0,88,0.00,,,0.00,WeatherCatV1.10B1784,2013-02-28 15:58:00,
2013-02-28 10:03:00,22.6,19.6,30.25,WNW,295,3.0,6.0,88,0.00,,,0.00,WeatherCatV1.10B1784,2013-02-28 16:03:00,
2013-02-28 10:08:00,22.7,19.4,30.25,WNW,286,5.0,6.0,87,0.00,,,0.00,WeatherCatV1.10B1784,2013-02-28 16:08:00,
2013-02-28 10:13:00,22.9,19.6,30.26,NW,305,5.0,5.0,87,0.00,,,0.00,WeatherCatV1.10B1784,2013-02-28 16:13:00,
2013-02-28 10:18:00,23.1,19.8,30.25,West,271,4.0,5.0,87,0.00,,,0.00,WeatherCatV1.10B1784,2013-02-28 16:18:00,
2013-02-28 10:23:00,23.2,19.9,30.26,WNW,282,1.0,4.0,87,0.00,,,0.00,WeatherCatV1.10B1784,2013-02-28 16:23:00,
2013-02-28 10:28:00,23.4,20.1,30.26,NNW,341,2.0,6.0,87,0.00,,,0.00,WeatherCatV1.10B1784,2013-02-28 16:28:00,
2013-02-28 10:33:00,23.6,20.0,30.26,NNW,340,4.0,6.0,86,0.00,,,0.00,WeatherCatV1.10B1784,2013-02-28 16:33:00,
2013-02-28 10:38:00,23.6,20.0,30.26,NNW,327,3.0,7.0,86,0.00,,,0.00,WeatherCatV1.10B1784,2013-02-28 16:38:00,
2013-02-28 10:43:00,23.8,20.5,30.26,NW,326,3.0,6.0,87,0.00,,,0.00,WeatherCatV1.10B1784,2013-02-28 16:43:00,
2013-02-28 10:48:00,23.9,20.3,30.26,NW,321,6.0,7.0,86,0.00,,,0.00,WeatherCatV1.10B1784,2013-02-28 16:48:00,
2013-02-28 10:53:00,23.9,20.3,30.26,West,274,2.0,10.0,86,0.00,,,0.00,WeatherCatV1.10B1784,2013-02-28 16:53:00,
2013-02-28 10:58:00,24.0,20.4,30.26,NNW,346,4.0,4.0,86,0.00,,,0.00,WeatherCatV1.10B1784,2013-02-28 16:58:00,
2013-02-28 11:03:00,24.2,20.6,30.26,NNW,341,8.0,8.0,86,0.00,,,0.00,WeatherCatV1.10B1784,2013-02-28 17:03:00,
2013-02-28 11:08:00,24.2,20.4,30.26,NW,317,2.0,10.0,85,0.00,,,0.00,WeatherCatV1.10B1784,2013-02-28 17:08:00,
2013-02-28 11:13:00,24.4,20.6,30.26,WSW,255,3.0,8.0,85,0.00,,,0.00,WeatherCatV1.10B1784,2013-02-28 17:13:00,
2013-02-28 11:18:00,24.5,20.6,30.26,West,280,4.0,5.0,85,0.00,,,0.00,WeatherCatV1.10B1784,2013-02-28 17:18:00,
2013-02-28 11:23:00,24.7,20.8,30.26,West,274,6.0,8.0,85,0.00,,,0.00,WeatherCatV1.10B1784,2013-02-28 17:23:00,
2013-02-28 11:28:00,24.6,20.7,30.26,NW,316,2.0,5.0,85,0.00,,,0.00,WeatherCatV1.10B1784,2013-02-28 17:28:00,
2013-02-28 11:33:00,24.8,20.9,30.26,WNW,303,3.0,8.0,85,0.00,,,0.00,WeatherCatV1.10B1784,2013-02-28 17:33:00,
2013-02-28 11:38:00,24.8,20.9,30.26,NW,310,0.0,5.0,85,0.00,,,0.00,WeatherCatV1.10B1784,2013-02-28 17:38:00,
2013-02-28 11:43:00,25.0,21.1,30.26,North,0,2.0,9.0,85,0.00,,,0.00,WeatherCatV1.10B1784,2013-02-28 17:43:00,
2013-02-28 11:48:00,25.1,21.2,30.26,NW,304,2.0,5.0,85,0.00,,,0.00,WeatherCatV1.10B1784,2013-02-28 17:48:00,
2013-02-28 11:53:00,25.3,21.2,30.26,North,352,5.0,8.0,84,0.00,,,0.00,WeatherCatV1.10B1784,2013-02-28 17:53:00,
2013-02-28 11:58:00,25.3,21.2,30.26,NNW,333,3.0,7.0,84,0.00,,,0.00,WeatherCatV1.10B1784,2013-02-28 17:58:00,
2013-02-28 12:03:00,25.5,21.4,30.26,WNW,287,2.0,7.0,84,0.00,,,0.00,WeatherCatV1.10B1784,2013-02-28 18:03:00,
2013-02-28 12:08:00,25.6,21.5,30.26,WNW,289,3.0,5.0,84,0.00,,,0.00,WeatherCatV1.10B1784,2013-02-28 18:08:00,
2013-02-28 12:13:00,25.7,21.3,30.26,NW,314,3.0,8.0,83,0.00,,,0.00,WeatherCatV1.10B1784,2013-02-28 18:13:00,
2013-02-28 12:18:00,25.7,21.5,30.26,NW,305,4.0,4.0,84,0.00,,,0.00,WeatherCatV1.10B1784,2013-02-28 18:18:00,
2013-02-28 12:23:00,26.0,21.6,30.26,WSW,257,7.0,7.0,83,0.00,,,0.00,WeatherCatV1.10B1784,2013-02-28 18:23:00,
2013-02-28 12:28:00,26.1,21.9,30.25,West,276,1.0,6.0,84,0.00,,,0.00,WeatherCatV1.10B1784,2013-02-28 18:28:00,
2013-02-28 12:33:00,26.3,22.1,30.25,West,269,3.0,6.0,84,0.00,,,0.00,WeatherCatV1.10B1784,2013-02-28 18:33:00,
2013-02-28 12:38:00,26.6,22.1,30.25,NNW,336,1.0,8.0,83,0.00,,,0.00,WeatherCatV1.10B1784,2013-02-28 18:38:00,
2013-02-28 12:43:00,26.6,22.1,30.26,WNW,293,2.0,6.0,83,0.00,,,0.00,WeatherCatV1.10B1784,2013-02-28 18:43:00,
2013-02-28 12:48:00,26.6,22.1,30.26,WNW,292,4.0,5.0,83,0.00,,,0.00,WeatherCatV1.10B1784,2013-02-28 18:48:00,
2013-02-28 12:53:00,26.6,22.4,30.26,NW,321,4.0,5.0,84,0.00,,,0.00,WeatherCatV1.10B1784,2013-02-28 18:53:00,
2013-02-28 12:58:00,26.4,22.0,30.26,NW,307,3.0,4.0,83,0.00,,,0.00,WeatherCatV1.10B1784,2013-02-28 18:58:00,
2013-02-28 13:03:00,26.5,22.0,30.26,WNW,288,2.0,7.0,83,0.00,,,0.00,WeatherCatV1.10B1784,2013-02-28 19:03:00,
2013-02-28 13:08:00,26.3,21.9,30.25,WNW,284,4.0,7.0,83,0.00,,,0.00,WeatherCatV1.10B1784,2013-02-28 19:08:00,
2013-02-28 13:13:00,26.2,22.0,30.25,NNW,327,4.0,8.0,84,0.00,,,0.00,WeatherCatV1.10B1784,2013-02-28 19:13:00,
2013-02-28 13:18:00,26.1,21.9,30.25,NW,321,3.0,4.0,84,0.00,,,0.00,WeatherCatV1.10B1784,2013-02-28 19:18:00,
2013-02-28 13:23:00,26.0,21.6,30.25,NNW,328,2.0,9.0,83,0.00,,,0.00,WeatherCatV1.10B1784,2013-02-28 19:23:00,
2013-02-28 13:28:00,26.1,21.9,30.25,NW,309,5.0,7.0,84,0.00,,,0.00,WeatherCatV1.10B1784,2013-02-28 19:28:00,
2013-02-28 13:33:00,26.1,21.7,30.25,NW,311,3.0,6.0,83,0.00,,,0.00,WeatherCatV1.10B1784,2013-02-28 19:33:00,
2013-02-28 13:38:00,26.1,21.9,30.25,NNW,340,5.0,8.0,84,0.00,,,0.00,WeatherCatV1.10B1784,2013-02-28 19:38:00,
2013-02-28 13:43:00,26.1,21.9,30.25,WNW,282,5.0,6.0,84,0.00,,,0.00,WeatherCatV1.10B1784,2013-02-28 19:43:00,
2013-02-28 13:48:00,26.0,21.6,30.25,WNW,299,4.0,7.0,83,0.00,,,0.00,WeatherCatV1.10B1784,2013-02-28 19:48:00,
2013-02-28 13:53:00,25.8,21.6,30.25,WNW,295,4.0,7.0,84,0.00,,,0.00,WeatherCatV1.10B1784,2013-02-28 19:53:00,
2013-02-28 13:58:00,25.8,21.6,30.25,NW,314,3.0,4.0,84,0.00,,,0.00,WeatherCatV1.10B1784,2013-02-28 19:58:00,
2013-02-28 14:03:00,26.0,21.8,30.25,West,278,8.0,9.0,84,0.00,,,0.00,WeatherCatV1.10B1784,2013-02-28 20:03:00,
2013-02-28 14:08:00,26.0,21.6,30.25,NNW,345,4.0,7.0,83,0.00,,,0.00,WeatherCatV1.10B1784,2013-02-28 20:08:00,
2013-02-28 14:13:00,26.0,21.6,30.25,NNW,334,5.0,6.0,83,0.00,,,0.00,WeatherCatV1.10B1784,2013-02-28 20:13:00,
2013-02-28 14:18:00,26.1,21.7,30.25,NW,324,3.0,4.0,83,0.00,,,0.00,WeatherCatV1.10B1784,2013-02-28 20:18:00,
2013-02-28 14:23:00,26.1,21.7,30.25,WNW,286,4.0,4.0,83,0.00,,,0.00,WeatherCatV1.10B1784,2013-02-28 20:23:00,
2013-02-28 14:28:00,25.9,21.5,30.25,WSW,244,5.0,8.0,83,0.00,,,0.00,WeatherCatV1.10B1784,2013-02-28 20:28:00,
2013-02-28 14:33:00,25.6,21.2,30.25,West,265,4.0,5.0,83,0.00,,,0.00,WeatherCatV1.10B1784,2013-02-28 20:33:00,
2013-02-28 14:38:00,25.5,21.4,30.25,WNW,287,2.0,4.0,84,0.00,,,0.00,WeatherCatV1.10B1784,2013-02-28 20:38:00,
2013-02-28 14:43:00,25.6,21.5,30.25,NW,314,2.0,5.0,84,0.00,,,0.00,WeatherCatV1.10B1784,2013-02-28 20:43:00,
2013-02-28 14:48:00,25.6,21.5,30.25,NNW,341,5.0,9.0,84,0.00,,,0.00,WeatherCatV1.10B1784,2013-02-28 20:48:00,
2013-02-28 14:53:00,25.6,21.5,30.25,NW,325,1.0,7.0,84,0.00,,,0.00,WeatherCatV1.10B1784,2013-02-28 20:53:00,
2013-02-28 14:58:00,25.5,21.4,30.25,West,281,5.0,5.0,84,0.00,,,0.00,WeatherCatV1.10B1784,2013-02-28 20:58:00,
2013-02-28 15:03:00,25.5,21.4,30.24,WNW,282,2.0,7.0,84,0.00,,,0.00,WeatherCatV1.10B1784,2013-02-28 21:03:00,
2013-02-28 15:08:00,25.4,21.3,30.24,NW,311,3.0,6.0,84,0.00,,,0.00,WeatherCatV1.10B1784,2013-02-28 21:08:00,
2013-02-28 15:13:00,25.3,21.2,30.24,WNW,301,5.0,7.0,84,0.00,,,0.00,WeatherCatV1.10B1784,2013-02-28 21:13:00,
2013-02-28 15:18:00,25.3,21.2,30.25,NNW,335,7.0,9.0,84,0.00,,,0.00,WeatherCatV1.10B1784,2013-02-28 21:18:00,
2013-02-28 15:23:00,25.3,21.4,30.25,WNW,284,2.0,7.0,85,0.00,,,0.00,WeatherCatV1.10B1784,2013-02-28 21:23:00,
2013-02-28 15:28:00,25.2,21.3,30.25,NW,316,4.0,9.0,85,0.00,,,0.00,WeatherCatV1.10B1784,2013-02-28 21:28:00,
2013-02-28 15:33:00,25.2,21.3,30.25,WNW,290,1.0,5.0,85,0.00,,,0.00,WeatherCatV1.10B1784,2013-02-28 21:33:00,
2013-02-28 15:38:00,25.1,21.2,30.25,NW,305,5.0,6.0,85,0.00,,,0.00,WeatherCatV1.10B1784,2013-02-28 21:38:00,
2013-02-28 15:43:00,25.1,21.0,30.25,NW,311,4.0,6.0,84,0.00,,,0.00,WeatherCatV1.10B1784,2013-02-28 21:43:00,
2013-02-28 15:48:00,25.1,21.0,30.25,NNW,330,4.0,7.0,84,0.00,,,0.00,WeatherCatV1.10B1784,2013-02-28 21:48:00,
2013-02-28 15:53:00,25.1,21.0,30.25,West,269,3.0,7.0,84,0.00,,,0.00,WeatherCatV1.10B1784,2013-02-28 21:53:00,
2013-02-28 15:58:00,25.2,21.1,30.25,WNW,301,3.0,5.0,84,0.00,,,0.00,WeatherCatV1.10B1784,2013-02-28 21:58:00,
2013-02-28 16:03:00,25.2,20.8,30.25,NW,305,4.0,4.0,83,0.00,,,0.00,WeatherCatV1.10B1784,2013-02-28 22:03:00,
2013-02-28 16:08:00,25.1,20.7,30.25,NW,320,4.0,7.0,83,0.00,,,0.00,WeatherCatV1.10B1784,2013-02-28 22:08:00,
2013-02-28 16:13:00,25.1,20.7,30.25,WNW,301,8.0,9.0,83,0.00,,,0.00,WeatherCatV1.10B1784,2013-02-28 22:13:00,
2013-02-28 16:18:00,25.0,20.6,30.25,WNW,298,3.0,7.0,83,0.00,,,0.00,WeatherCatV1.10B1784,2013-02-28 22:18:00,
2013-02-28 16:23:00,25.0,20.9,30.25,NW,320,2.0,4.0,84,0.00,,,0.00,WeatherCatV1.10B1784,2013-02-28 22:23:00,
2013-02-28 16:28:00,25.1,21.0,30.25,NNW,333,4.0,5.0,84,0.00,,,0.00,WeatherCatV1.10B1784,2013-02-28 22:28:00,
2013-02-28 16:33:00,25.0,20.6,30.25,NNW,341,1.0,6.0,83,0.00,,,0.00,WeatherCatV1.10B1784,2013-02-28 22:33:00,
2013-02-28 16:38:00,25.0,20.6,30.25,NW,324,4.0,4.0,83,0.00,,,0.00,WeatherCatV1.10B1784,2013-02-28 22:38:00,
2013-02-28 16:43:00,24.9,20.5,30.25,NW,311,4.0,6.0,83,0.00,,,0.00,WeatherCatV1.10B1784,2013-02-28 22:43:00,
2013-02-28 16:48:00,24.7,20.6,30.25,NW,322,0.0,5.0,84,0.00,,,0.00,WeatherCatV1.10B1784,2013-02-28 22:48:00,
2013-02-28 16:53:00,24.7,20.6,30.25,WNW,299,3.0,9.0,84,0.00,,,0.00,WeatherCatV1.10B1784,2013-02-28 22:53:00,
2013-02-28 16:58:00,24.6,20.5,30.25,WNW,291,3.0,4.0,84,0.00,,,0.00,WeatherCatV1.10B1784,2013-02-28 22:58:00,
2013-02-28 17:03:00,24.5,20.1,30.25,NW,311,2.0,5.0,83,0.00,,,0.00,WeatherCatV1.10B1784,2013-02-28 23:03:00,
2013-02-28 17:08:00,24.5,20.1,30.25,NW,304,4.0,5.0,83,0.00,,,0.00,WeatherCatV1.10B1784,2013-02-28 23:08:00,
2013-02-28 17:13:00,24.4,20.3,30.26,WNW,300,2.0,5.0,84,0.00,,,0.00,WeatherCatV1.10B1784,2013-02-28 23:13:00,
2013-02-28 17:18:00,24.4,20.3,30.26,NW,320,5.0,8.0,84,0.00,,,0.00,WeatherCatV1.10B1784,2013-02-28 23:18:00,
2013-02-28 17:23:00,24.3,20.2,30.26,WNW,299,5.0,6.0,84,0.00,,,0.00,WeatherCatV1.10B1784,2013-02-28 23:23:00,
2013-02-28 17:28:00,24.3,19.9,30.26,West,280,2.0,8.0,83,0.00,,,0.00,WeatherCatV1.10B1784,2013-02-28 23:28:00,
2013-02-28 17:33:00,24.2,19.8,30.26,NW,315,0.0,7.0,83,0.00,,,0.00,WeatherCatV1.10B1784,2013-02-28 23:33:00,
2013-02-28 17:38:00,24.2,19.8,30.26,NW,310,5.0,6.0,83,0.00,,,0.00,WeatherCatV1.10B1784,2013-02-28 23:38:00,
2013-02-28 17:43:00,24.2,20.1,30.26,NNW,328,1.0,5.0,84,0.00,,,0.00,WeatherCatV1.10B1784,2013-02-28 23:43:00,
2013-02-28 17:48:00,24.2,20.1,30.26,NW,314,0.0,3.0,84,0.00,,,0.00,WeatherCatV1.10B1784,2013-02-28 23:48:00,
2013-02-28 17:53:00,24.2,20.1,30.26,NW,323,2.0,5.0,84,0.00,,,0.00,WeatherCatV1.10B1784,2013-02-28 23:53:00,
2013-02-28 17:58:00,24.2,20.1,30.27,WNW,301,0.0,3.0,84,0.00,,,0.00,WeatherCatV1.10B1784,2013-02-28 23:58:00,
2013-02-28 18:03:00,24.2,20.1,30.27,WNW,302,2.0,8.0,84,0.00,,,0.00,WeatherCatV1.10B1784,2013-03-01 00:03:00,
2013-02-28 18:08:00,24.2,20.1,30.27,NW,307,1.0,8.0,84,0.00,,,0.00,WeatherCatV1.10B1784,2013-03-01 00:08:00,
2013-02-28 18:13:00,24.2,20.1,30.27,NNW,328,1.0,4.0,84,0.00,,,0.00,WeatherCatV1.10B1784,2013-03-01 00:13:00,
2013-02-28 18:18:00,24.3,20.2,30.27,NW,305,3.0,5.0,84,0.00,,,0.00,WeatherCatV1.10B1784,2013-03-01 00:18:00,
2013-02-28 18:23:00,24.3,20.2,30.27,NW,306,3.0,3.0,84,0.00,,,0.00,WeatherCatV1.10B1784,2013-03-01 00:23:00,
2013-02-28 18:28:00,24.3,20.2,30.27,NW,324,2.0,4.0,84,0.00,,,0.00,WeatherCatV1.10B1784,2013-03-01 00:28:00,
2013-02-28 18:33:00,24.3,20.2,30.27,NW,307,2.0,5.0,84,0.00,,,0.00,WeatherCatV1.10B1784,2013-03-01 00:33:00,
2013-02-28 18:38:00,24.3,20.2,30.27,NW,323,2.0,4.0,84,0.00,,,0.00,WeatherCatV1.10B1784,2013-03-01 00:38:00,
2013-02-28 18:43:00,24.4,20.0,30.27,NW,320,2.0,5.0,83,0.00,,,0.00,WeatherCatV1.10B1784,2013-03-01 00:43:00,
2013-02-28 18:48:00,24.4,20.3,30.28,WNW,299,5.0,5.0,84,0.00,,,0.00,WeatherCatV1.10B1784,2013-03-01 00:48:00,
2013-02-28 18:53:00,24.4,20.0,30.27,NW,314,3.0,5.0,83,0.00,,,0.00,WeatherCatV1.10B1784,2013-03-01 00:53:00,
2013-02-28 18:58:00,24.4,20.0,30.27,WNW,297,1.0,3.0,83,0.00,,,0.00,WeatherCatV1.10B1784,2013-03-01 00:58:00,
2013-02-28 19:03:00,24.4,20.3,30.28,WNW,297,1.0,5.0,84,0.00,,,0.00,WeatherCatV1.10B1784,2013-03-01 01:03:00,
2013-02-28 19:08:00,24.4,20.3,30.28,NNE,15,2.0,4.0,84,0.00,,,0.00,WeatherCatV1.10B1784,2013-03-01 01:08:00,
2013-02-28 19:13:00,24.4,20.0,30.28,NNW,328,4.0,7.0,83,0.00,,,0.00,WeatherCatV1.10B1784,2013-03-01 01:13:00,
2013-02-28 19:18:00,24.5,19.8,30.28,WNW,293,3.0,5.0,82,0.00,,,0.00,WeatherCatV1.10B1784,2013-03-01 01:18:00,
2013-02-28 19:23:00,24.5,20.1,30.28,NW,312,3.0,4.0,83,0.00,,,0.00,WeatherCatV1.10B1784,2013-03-01 01:23:00,
2013-02-28 19:28:00,24.5,20.1,30.28,NNW,338,2.0,5.0,83,0.00,,,0.00,WeatherCatV1.10B1784,2013-03-01 01:28:00,
2013-02-28 19:33:00,24.4,20.3,30.28,NW,314,1.0,6.0,84,0.00,,,0.00,WeatherCatV1.10B1784,2013-03-01 01:33:00,
2013-02-28 19:38:00,24.4,20.3,30.28,NW,309,3.0,3.0,84,0.00,,,0.00,WeatherCatV1.10B1784,2013-03-01 01:38:00,
2013-02-28 19:43:00,24.4,20.3,30.28,NW,304,1.0,3.0,84,0.00,,,0.00,WeatherCatV1.10B1784,2013-03-01 01:43:00,
2013-02-28 19:48:00,24.3,20.5,30.28,WNW,295,5.0,6.0,85,0.00,,,0.00,WeatherCatV1.10B1784,2013-03-01 01:48:00,
2013-02-28 19:53:00,24.3,20.5,30.29,NW,314,3.0,6.0,85,0.00,,,0.00,WeatherCatV1.10B1784,2013-03-01 01:53:00,
2013-02-28 19:58:00,24.2,20.4,30.29,NW,314,1.0,4.0,85,0.00,,,0.00,WeatherCatV1.10B1784,2013-03-01 01:58:00,
2013-02-28 20:03:00,24.2,20.4,30.29,WNW,301,1.0,2.0,85,0.00,,,0.00,WeatherCatV1.10B1784,2013-03-01 02:03:00,
2013-02-28 20:08:00,24.1,20.5,30.29,NNW,335,1.0,4.0,86,0.00,,,0.00,WeatherCatV1.10B1784,2013-03-01 02:08:00,
2013-02-28 20:13:00,24.0,20.4,30.29,NNW,336,2.0,2.0,86,0.00,,,0.00,WeatherCatV1.10B1784,2013-03-01 02:13:00,
2013-02-28 20:18:00,24.0,20.4,30.29,NNW,344,6.0,6.0,86,0.00,,,0.00,WeatherCatV1.10B1784,2013-03-01 02:18:00,
2013-02-28 20:23:00,23.9,20.1,30.29,WNW,303,2.0,5.0,85,0.00,,,0.00,WeatherCatV1.10B1784,2013-03-01 02:23:00,
2013-02-28 20:28:00,23.8,19.7,30.29,NNW,327,3.0,5.0,84,0.00,,,0.00,WeatherCatV1.10B1784,2013-03-01 02:28:00,
2013-02-28 20:33:00,23.8,20.0,30.29,NW,309,1.0,2.0,85,0.00,,,0.00,WeatherCatV1.10B1784,2013-03-01 02:33:00,
2013-02-28 20:38:00,23.8,19.7,30.29,NW,306,5.0,6.0,84,0.00,,,0.00,WeatherCatV1.10B1784,2013-03-01 02:38:00,
2013-02-28 20:43:00,23.7,19.3,30.29,West,278,2.0,5.0,83,0.00,,,0.00,WeatherCatV1.10B1784,2013-03-01 02:43:00,
2013-02-28 20:48:00,23.7,19.6,30.29,North,349,1.0,5.0,84,0.00,,,0.00,WeatherCatV1.10B1784,2013-03-01 02:48:00,
2013-02-28 20:53:00,23.6,19.5,30.29,NW,316,1.0,3.0,84,0.00,,,0.00,WeatherCatV1.10B1784,2013-03-01 02:53:00,
2013-02-28 20:58:00,23.6,19.8,30.29,NW,306,2.0,4.0,85,0.00,,,0.00,WeatherCatV1.10B1784,2013-03-01 02:58:00,
2013-02-28 21:03:00,23.6,19.8,30.29,WNW,301,1.0,3.0,85,0.00,,,0.00,WeatherCatV1.10B1784,2013-03-01 03:03:00,
2013-02-28 21:08:00,23.5,19.7,30.29,NW,312,1.0,4.0,85,0.00,,,0.00,WeatherCatV1.10B1784,2013-03-01 03:08:00,
2013-02-28 21:13:00,23.5,19.7,30.29,NW,306,4.0,5.0,85,0.00,,,0.00,WeatherCatV1.10B1784,2013-03-01 03:13:00,
2013-02-28 21:18:00,23.5,19.7,30.28,WNW,286,1.0,3.0,85,0.00,,,0.00,WeatherCatV1.10B1784,2013-03-01 03:18:00,
2013-02-28 21:23:00,23.4,19.6,30.29,NW,317,2.0,6.0,85,0.00,,,0.00,WeatherCatV1.10B1784,2013-03-01 03:23:00,
2013-02-28 21:28:00,23.4,19.3,30.29,NW,305,0.0,5.0,84,0.00,,,0.00,WeatherCatV1.10B1784,2013-03-01 03:28:00,
2013-02-28 21:33:00,23.4,19.3,30.29,WNW,293,2.0,4.0,84,0.00,,,0.00,WeatherCatV1.10B1784,2013-03-01 03:33:00,
2013-02-28 21:38:00,23.4,19.3,30.29,NW,316,0.0,6.0,84,0.00,,,0.00,WeatherCatV1.10B1784,2013-03-01 03:38:00,
2013-02-28 21:43:00,23.4,19.3,30.29,NW,311,3.0,4.0,84,0.00,,,0.00,WeatherCatV1.10B1784,2013-03-01 03:43:00,
2013-02-28 21:48:00,23.4,19.3,30.29,WNW,303,3.0,5.0,84,0.00,,,0.00,WeatherCatV1.10B1784,2013-03-01 03:48:00,
2013-02-28 21:53:00,23.3,19.2,30.29,NW,307,5.0,5.0,84,0.00,,,0.00,WeatherCatV1.10B1784,2013-03-01 03:53:00,
2013-02-28 21:58:00,23.2,19.1,30.29,NNW,327,2.0,3.0,84,0.00,,,0.00,WeatherCatV1.10B1784,2013-03-01 03:58:00,
2013-02-28 22:03:00,23.2,19.1,30.29,NW,316,4.0,4.0,84,0.00,,,0.00,WeatherCatV1.10B1784,2013-03-01 04:03:00,
2013-02-28 22:08:00,23.1,19.3,30.29,NW,309,1.0,5.0,85,0.00,,,0.00,WeatherCatV1.10B1784,2013-03-01 04:08:00,
2013-02-28 22:13:00,23.1,19.3,30.29,NNW,330,4.0,5.0,85,0.00,,,0.00,WeatherCatV1.10B1784,2013-03-01 04:13:00,
2013-02-28 22:18:00,23.1,19.3,30.29,North,0,2.0,4.0,85,0.00,,,0.00,WeatherCatV1.10B1784,2013-03-01 04:18:00,
2013-02-28 22:23:00,23.0,19.2,30.29,NNW,341,3.0,5.0,85,0.00,,,0.00,WeatherCatV1.10B1784,2013-03-01 04:23:00,
2013-02-28 22:28:00,23.0,19.2,30.29,NW,310,3.0,6.0,85,0.00,,,0.00,WeatherCatV1.10B1784,2013-03-01 04:28:00,
2013-02-28 22:33:00,23.0,19.2,30.29,NNW,328,3.0,6.0,85,0.00,,,0.00,WeatherCatV1.10B1784,2013-03-01 04:33:00,
2013-02-28 22:38:00,22.9,19.1,30.29,NW,310,1.0,6.0,85,0.00,,,0.00,WeatherCatV1.10B1784,2013-03-01 04:38:00,
2013-02-28 22:43:00,22.9,18.8,30.29,WNW,302,1.0,5.0,84,0.00,,,0.00,WeatherCatV1.10B1784,2013-03-01 04:43:00,
2013-02-28 22:48:00,22.8,18.7,30.29,NW,305,2.0,4.0,84,0.00,,,0.00,WeatherCatV1.10B1784,2013-03-01 04:48:00,
2013-02-28 22:53:00,22.8,18.7,30.29,WNW,295,2.0,7.0,84,0.00,,,0.00,WeatherCatV1.10B1784,2013-03-01 04:53:00,
2013-02-28 22:58:00,22.7,18.6,30.29,WNW,299,3.0,4.0,84,0.00,,,0.00,WeatherCatV1.10B1784,2013-03-01 04:58:00,
2013-02-28 23:00:00,22.7,18.6,30.29,NNW,338,3.0,5.0,84,0.00,,,0.00,WeatherCatV1.10B1784,2013-03-01 05:00:00,
2013-02-28 23:05:00,22.7,18.6,30.29,WNW,303,1.0,4.0,84,0.00,,,0.00,WeatherCatV1.10B1784,2013-03-01 05:05:00,
2013-02-28 23:10:00,22.7,18.6,30.29,North,355,0.0,5.0,84,0.00,,,0.00,WeatherCatV1.10B1784,2013-03-01 05:10:00,
2013-02-28 23:15:00,22.7,18.6,30.29,West,280,2.0,5.0,84,0.00,,,0.00,WeatherCatV1.10B1784,2013-03-01 05:15:00,
2013-02-28 23:20:00,22.6,18.5,30.29,NW,314,2.0,3.0,84,0.00,,,0.00,WeatherCatV1.10B1784,2013-03-01 05:20:00,
2013-02-28 23:25:00,22.6,18.2,30.29,NW,320,2.0,4.0,83,0.00,,,0.00,WeatherCatV1.10B1784,2013-03-01 05:25:00,
2013-02-28 23:30:00,22.6,18.2,30.28,NW,312,2.0,7.0,83,0.00,,,0.00,WeatherCatV1.10B1784,2013-03-01 05:30:00,
2013-02-28 23:35:00,22.6,18.2,30.28,NW,308,2.0,4.0,83,0.00,,,0.00,WeatherCatV1.10B1784,2013-03-01 05:35:00,
2013-02-28 23:40:00,22.6,18.2,30.29,WNW,298,2.0,4.0,83,0.00,,,0.00,WeatherCatV1.10B1784,2013-03-01 05:40:00,
2013-02-28 23:45:00,22.6,18.2,30.28,NNW,339,2.0,5.0,83,0.00,,,0.00,WeatherCatV1.10B1784,2013-03-01 05:45:00,
2013-02-28 23:50:00,22.5,18.1,30.28,NW,320,1.0,5.0,83,0.00,,,0.00,WeatherCatV1.10B1784,2013-03-01 05:50:00,
2013-02-28 23:55:00,22.5,18.1,30.28,NW,326,2.0,3.0,83,0.00,,,0.00,WeatherCatV1.10B1784,2013-03-01 05:55:00,